Location: Unspecified
(0.0000°N, 0.0000°E)
Time: 14:46:20
(UTC+00:00)

STARLINK-36919 - Pass Details

Date: 04 March 2026
Orbit: 267 x 268 km, 53.2° (Epoch: 6 March)

Event Time Altitude Azimuth Distance (km) Brightness Sun altitude
Rises 19:01:59 0° 219° (SW) 1,836 6.0 -12.5°
Reaches altitude 10° 19:03:52 10° 222° (SW) 1,037 4.8 -13.0°
Maximum altitude 19:06:07 59° 304° (WNW) 301 1.5 -13.5°
Enters shadow 19:07:27 21° 19° (NNE) 654 2.8 -13.9°
